Simultaneous Nadir Overpasses (SNOs) Predictions

Prediction of SNOs between METOP-A and NOAA-19 Satellite Orbit:

Table of predicted SNOs for the next 14.0 days since TLE Epoch: 4/6/2018
Index Date (METOP-A) Time (METOP-A) Lat,Lon (METOP-A) SZA (METOP-A ) Date (NOAA-19) Time (NOAA-19) Lat,Lon (NOAA-19) SZA (NOAA-19 ) Distance(km) Time Diff (sec)
1 04/06/2018 23:48:02 -78.66, 12.71 107.98 04/06/2018 23:46:57 -78.67, 8.71 108.08 87.44 65
2 04/07/2018 00:38:50 78.35, 178.23 71.64 04/07/2018 00:37:54 78.33, 178.19 71.62 2.47 56
3 04/07/2018 01:29:32 -78.33, -14.54 108.39 04/07/2018 01:28:49 -78.34, -14.61 108.39 1.85 43
4 04/07/2018 02:20:12 78.33, 152.78 71.60 04/07/2018 02:19:55 78.32, 152.75 71.58 1.21 17
5 04/07/2018 03:10:54 -78.31, -40.00 108.44 04/07/2018 03:10:50 -78.33, -40.06 108.42 2.77 4
6 04/07/2018 04:01:34 78.31, 127.32 71.55 04/07/2018 04:01:56 78.31, 127.30 71.55 0.67 22
7 04/07/2018 04:52:16 -78.29, -65.45 108.49 04/07/2018 04:52:50 -78.29, -65.28 108.49 3.82 34
8 04/07/2018 05:42:56 78.29, 101.87 71.50 04/07/2018 05:43:57 78.30, 101.85 71.52 1.76 61
9 04/07/2018 06:33:37 -78.31, -90.68 108.50 04/07/2018 06:34:51 -78.28, -90.73 108.52 3.62 74
10 04/17/2018 19:57:07 -78.60, 69.98 111.98 04/17/2018 19:55:59 -78.62, 67.14 112.05 62.46 68
11 04/17/2018 20:47:52 78.39,-123.89 67.76 04/17/2018 20:46:57 78.36,-123.90 67.73 3.26 55
12 04/17/2018 21:38:34 -78.38, 43.40 112.26 04/17/2018 21:37:53 -78.36, 43.34 112.29 2.68 41
13 04/17/2018 22:29:14 78.37,-149.35 67.71 04/17/2018 22:28:58 78.35,-149.36 67.70 1.84 16
14 04/17/2018 23:19:56 -78.36, 17.95 112.31 04/17/2018 23:19:54 -78.36, 17.89 112.32 1.63 2
15 04/18/2018 00:10:36 78.35,-174.80 67.67 04/18/2018 00:10:59 78.34,-174.81 67.66 0.42 23
16 04/18/2018 01:01:18 -78.34, -7.50 112.36 04/18/2018 01:01:55 -78.35, -7.56 112.35 1.38 37
17 04/18/2018 01:51:58 78.33, 159.74 67.62 04/18/2018 01:53:00 78.34, 159.74 67.63 1.04 62




NCC Satellite Simultaneous Nadir Overpasses (SNOs) Prediction Service
